User: anonymous   Login
Location: Unspecified
(0.0000°N, 0.0000°E)
Time: 10:39:58
(UTC+00:00)
Language:

CARTOSAT-1 - Orbit

View from above orbital plane
View from above orbital plane
View from above satellite
View from above satellite

Ground track
Ground track

The orbit data is extracted from the following two-line orbital elements,

1 28649U 05017A   18198.82392454  .00000083  00000-0  16486-4 0  9996
2 28649  97.8219 271.0397 0001835 148.2132 211.9185 14.83475925714630
Epoch (UTC): 17 July 2018 19:46:27
Eccentricity: 0.0001835
inclination: 97.8219°
perigee height: 617 km
apogee height: 619 km
right ascension of ascending node: 271.0397°
argument of perigee: 148.2132°
revolutions per day: 14.83475925
mean anomaly at epoch: 211.9185°
orbit number at epoch: 71463

The dashed part of the orbit path shows where the satellite is in the earth's shadow,  

DLR